TimeEDT,TemperatureF,Dew PointF,Humidity,Sea Level PressureIn,VisibilityMPH,Wind Direction,Wind SpeedMPH,Gust SpeedMPH,PrecipitationIn,Events,Conditions,WindDirDegrees,DateUTC
12:25 AM,41.0,37.4,87,29.59,7.0,WNW,8.1,-,0.02,Rain,Light Rain,290,2012-11-01 04:25:00
12:29 AM,41.0,37.4,87,29.59,7.0,West,9.2,-,0.03,Rain,Light Rain,280,2012-11-01 04:29:00
12:37 AM,41.0,37.4,87,29.59,6.0,West,8.1,-,0.03,Rain,Light Rain,280,2012-11-01 04:37:00
12:49 AM,41.0,37.4,87,29.59,6.0,WNW,8.1,-,0.03,Rain,Light Rain,290,2012-11-01 04:49:00
12:53 AM,41.0,37.0,86,29.60,6.0,West,10.4,-,0.03,Rain,Light Rain,280,2012-11-01 04:53:00
1:31 AM,41.0,37.4,87,29.59,9.0,West,9.2,-,0.02,Rain,Light Rain,280,2012-11-01 05:31:00
2:02 AM,41.0,37.4,87,29.59,7.0,West,6.9,-,0.01,Rain,Light Rain,280,2012-11-01 06:02:00
2:12 AM,41.0,37.4,87,29.59,7.0,West,6.9,-,0.01,Rain,Light Rain,280,2012-11-01 06:12:00
2:20 AM,41.0,37.4,87,29.59,9.0,West,8.1,-,0.02,Rain,Light Rain,280,2012-11-01 06:20:00
2:53 AM,41.0,37.0,86,29.61,9.0,West,8.1,-,0.03,Rain,Light Rain,280,2012-11-01 06:53:00
3:53 AM,41.0,37.0,86,29.61,10.0,West,9.2,-,0.01,,Overcast,270,2012-11-01 07:53:00
4:53 AM,41.0,37.0,86,29.62,5.0,WNW,8.1,-,N/A,,Overcast,290,2012-11-01 08:53:00
5:24 AM,41.0,37.4,87,29.61,10.0,West,8.1,-,0.01,Rain,Light Rain,270,2012-11-01 09:24:00
5:53 AM,41.0,36.0,82,29.62,10.0,West,10.4,-,0.01,,Overcast,270,2012-11-01 09:53:00
6:22 AM,41.0,35.6,81,29.61,10.0,West,6.9,-,N/A,,Overcast,280,2012-11-01 10:22:00
6:36 AM,39.2,37.4,93,29.61,5.0,West,9.2,-,N/A,,Overcast,270,2012-11-01 10:36:00
6:48 AM,39.2,37.4,93,29.62,3.0,West,6.9,-,0.01,Rain,Light Rain,280,2012-11-01 10:48:00
6:53 AM,39.9,37.0,89,29.63,3.0,West,9.2,-,0.01,Rain,Light Rain,280,2012-11-01 10:53:00
7:53 AM,39.9,36.0,86,29.64,7.0,WNW,10.4,18.4,0.01,Rain,Light Rain,290,2012-11-01 11:53:00
8:01 AM,39.2,35.6,87,29.63,5.0,WNW,8.1,-,0.00,Rain,Light Rain,290,2012-11-01 12:01:00
8:53 AM,39.9,36.0,86,29.66,3.0,WNW,9.2,-,0.01,,Overcast,290,2012-11-01 12:53:00
9:32 AM,39.2,35.6,87,29.65,8.0,West,9.2,-,0.00,,Overcast,280,2012-11-01 13:32:00
10:53 AM,41.0,36.0,82,29.68,8.0,West,8.1,-,0.00,Rain,Light Rain,280,2012-11-01 14:53:00
11:06 AM,41.0,35.6,81,29.67,4.0,WNW,11.5,-,0.01,Rain,Light Rain,290,2012-11-01 15:06:00
11:21 AM,41.0,37.4,87,29.67,7.0,WNW,9.2,-,0.01,Rain,Light Rain,290,2012-11-01 15:21:00
11:53 AM,42.1,37.0,82,29.69,5.0,West,11.5,-,0.02,Rain,Light Rain,280,2012-11-01 15:53:00
12:02 PM,42.8,37.4,81,29.67,5.0,West,12.7,-,0.00,Rain,Light Rain,280,2012-11-01 16:02:00
12:09 PM,42.8,37.4,81,29.67,4.0,WNW,10.4,20.7,0.01,Rain,Light Rain,290,2012-11-01 16:09:00
12:28 PM,42.8,37.4,81,29.67,6.0,WNW,10.4,16.1,0.01,Rain,Light Rain,300,2012-11-01 16:28:00
12:53 PM,42.1,37.0,82,29.68,5.0,West,12.7,-,0.02,Rain,Light Rain,280,2012-11-01 16:53:00
1:14 PM,42.8,37.4,81,29.66,4.0,WNW,5.8,-,0.00,Rain,Light Rain,290,2012-11-01 17:14:00
1:26 PM,42.8,37.4,81,29.66,3.0,West,10.4,18.4,0.01,Rain,Light Rain,270,2012-11-01 17:26:00
1:46 PM,42.8,37.4,81,29.66,4.0,WNW,13.8,-,0.01,Rain,Light Rain,290,2012-11-01 17:46:00
1:53 PM,42.1,37.9,85,29.68,3.0,West,11.5,19.6,0.02,Rain,Light Rain,280,2012-11-01 17:53:00
2:24 PM,42.8,37.4,81,29.67,2.5,West,11.5,-,0.00,Rain,Light Rain,280,2012-11-01 18:24:00
2:33 PM,42.8,37.4,81,29.67,3.0,WNW,11.5,-,0.01,Rain,Light Rain,290,2012-11-01 18:33:00
2:53 PM,42.1,37.9,85,29.68,3.0,WNW,8.1,-,0.03,Rain,Light Rain,300,2012-11-01 18:53:00
3:16 PM,42.8,37.4,81,29.67,7.0,WNW,11.5,17.3,0.00,Rain,Light Rain,290,2012-11-01 19:16:00
3:53 PM,41.0,37.0,86,29.69,8.0,West,12.7,18.4,0.02,Rain,Light Rain,270,2012-11-01 19:53:00
4:01 PM,41.0,37.4,87,29.67,7.0,West,9.2,-,0.00,Rain,Light Rain,270,2012-11-01 20:01:00
4:08 PM,41.0,37.4,87,29.67,6.0,West,11.5,-,0.01,Rain,Light Rain,260,2012-11-01 20:08:00
4:23 PM,41.0,37.4,87,29.68,6.0,West,10.4,-,0.01,Rain,Light Rain,270,2012-11-01 20:23:00
4:53 PM,41.0,37.0,86,29.70,6.0,West,10.4,17.3,0.03,Rain,Light Rain,260,2012-11-01 20:53:00
5:53 PM,41.0,36.0,82,29.71,10.0,West,8.1,-,0.02,,Overcast,270,2012-11-01 21:53:00
6:53 PM,41.0,36.0,82,29.73,10.0,WSW,8.1,-,0.01,,Overcast,250,2012-11-01 22:53:00
7:53 PM,41.0,34.0,76,29.74,10.0,West,5.8,-,N/A,,Overcast,270,2012-11-01 23:53:00
8:26 PM,39.2,33.8,81,29.73,10.0,WSW,5.8,-,N/A,,Overcast,240,2012-11-02 00:26:00
8:53 PM,39.9,34.0,79,29.75,10.0,WSW,4.6,-,N/A,,Overcast,240,2012-11-02 00:53:00
9:53 PM,39.0,34.0,82,29.75,10.0,SW,5.8,-,N/A,,Overcast,220,2012-11-02 01:53:00
10:53 PM,39.0,34.0,82,29.75,10.0,SW,6.9,-,N/A,,Mostly Cloudy,220,2012-11-02 02:53:00
11:53 PM,37.9,34.0,86,29.74,10.0,SW,9.2,-,N/A,,Overcast,230,2012-11-02 03:53:00